Terminal Aerodrome Forecast
Issued by NWS Buffalo, NY

Home | Current Version | Previous Version | Text Only | Print | Product List | Glossary On
Versions: 1 2 3 4 5 6 7 8 9 10 11 12 13 14 15 16 17 18 19 20 21 22 23 24 25 26 27 28 29 30 31 32 33 34 35 36 37
000
FTUS41 KBUF 150311 AAA
TAFART
TAF AMD
KART 150311Z 1503/1524 28008KT P6SM BKN025
     FM150800 25005KT P6SM BKN025
     FM151200 20005KT 4SM -SN BKN025
     FM151400 21008KT 2SM -SN BKN015
     FM151600 21012G18KT P6SM VCSH BKN025=

USA.gov is the U.S. government's official web portal to all federal, state and local government web resources and services.